[[{"header":{"parameterUnit":"m.s-1","parameterCategory":1,"la1":30.2991,"la2":30.254,"lo1":-89.0895,"lo2":-89.0444,"dy":0.0017,"dx":0.0017,"nx":28,"ny":28,"refTime":"2024-09-25T03:00:00:Z","depth":0,"parameterNumber":2,"parameterNumberName":"U-component_of_WINDS"},"data":[0,0,0,0,0,0,0,0,0,0,0,0,0,0,0,0,0,0,0,0,0,0,0,0,0,0,0,0,0,0,0,0,0,0,0,0,0,0,0,0,0,0,0,0,0,0,0,0,0,0,0,0,0,0,0,0,0,0,0.2259,0.2259,0,0.2203,0.2202,0.2201,0.2174,0.2174,0.2174,0.2174,0.2113,0.2112,0.211,0,0,0,0,0,0,0,0,0,0,0,0,0,0.234,0.2339,0.2259,0.2259,0.2258,0.2203,0.2202,0.2201,0.2174,0.2174,0.2174,0.2174,0.2114,0.2112,0.211,0,0,0,0,0,0,0,0,0,0,0,0,0,0.2297,0.2339,0.2259,0.2238,0.2235,0.2203,0.2202,0.2201,0.2174,0.2174,0.2174,0.2174,0.2115,0.2112,0.211,0.2094,0,0,0.2102,0.2101,0,0,0,0,0,0,0,0,0.2299,0.2294,0.2242,0.2239,0.2236,0.2195,0.2208,0.2165,0.2174,0.2197,0.2174,0.2174,0.214,0.2136,0.2125,0.2091,0.2088,0.2102,0.21,0.2099,0.2099,0,0,0,0,0,0,0,0.2302,0.2296,0.2237,0.2241,0.2238,0.223,0.2223,0.22,0.2169,0.2195,0.2193,0.2187,0.2139,0.2128,0.2123,0.2087,0.2102,0.21,0.2098,0.2097,0.2035,0.2034,0,0,0,0,0,0,0.2309,0.2299,0.2239,0.2235,0.2269,0.2228,0.2221,0.2208,0.2169,0.2164,0.2187,0.2186,0.2132,0.2126,0.2121,0.2098,0.2099,0.2097,0.2096,0.2035,0.2035,0.2034,0,0,0,0,0,0,0.2311,0.2304,0.2241,0.2266,0.2258,0.2227,0.2213,0.2207,0.2196,0.2163,0.2157,0.2181,0.2132,0.2125,0.21,0.2096,0.2096,0.2094,0.2035,0.2035,0.2034,0.2054,0,0,0,0,0,0,0.2313,0.2305,0.23,0.2266,0.2256,0.2222,0.2212,0.2206,0.2192,0.219,0.2156,0.215,0.2131,0.2104,0.2098,0.2092,0.2092,0.2035,0.2035,0.2035,0.2053,0.2054,0.2055,0,0,0,0,0,0.2316,0.2307,0.2299,0.2292,0.2249,0.2222,0.2216,0.2195,0.2192,0.2185,0.2164,0.2152,0.2098,0.2102,0.2095,0.2088,0.2035,0.2035,0.2035,0.2053,0.2054,0.2055,0,0,0,0,0,0,0.234,0.2302,0.2294,0.2273,0.2251,0.2218,0.2209,0.2197,0.2174,0.2173,0.2147,0.2139,0.2117,0.21,0.2106,0.207,0.2065,0.2063,0.2081,0.2082,0.2083,0.2087,0.209,0,0,0,0,0,0.2343,0.2325,0.2293,0.2278,0.2268,0.224,0.2228,0.2213,0.2189,0.2179,0.2156,0.2132,0.2109,0.2095,0.2072,0.2051,0.2042,0.2042,0.2043,0.2044,0.2042,0.2028,0.2027,0.2033,0.2033,0.2033,0,0,0.2349,0.2326,0.2316,0.2282,0.2263,0.2244,0.2233,0.2213,0.2198,0.2176,0.2151,0.2133,0.2104,0.2081,0.2069,0.2066,0.2039,0.2043,0.2044,0.2042,0.2027,0.2027,0.2026,0.2033,0.2033,0.2033,0,0,0.2349,0.2331,0.2316,0.2297,0.2269,0.225,0.2247,0.2215,0.2202,0.2177,0.2159,0.214,0.2102,0.2082,0.2067,0.2058,0.2045,0.2051,0.2055,0.2041,0.204,0.204,0.2035,0.2034,0.205,0.205,0.205,0,0.236,0.2332,0.231,0.2291,0.2275,0.2255,0.2238,0.222,0.2186,0.2175,0.2172,0.2123,0.2102,0.2073,0.207,0.2059,0.2053,0.2055,0.2042,0.2041,0.204,0.2036,0.2034,0.2051,0.2051,0.205,0.205,0,0.2345,0.2325,0.2316,0.2284,0.2267,0.225,0.2224,0.221,0.2196,0.2177,0.2151,0.2125,0.2096,0.2088,0.2075,0.2056,0.2055,0.2048,0.2042,0.2041,0.2036,0.2034,0.2052,0.2052,0.2051,0.2051,0,0,0.236,0.2314,0.2311,0.2295,0.2262,0.2245,0.2226,0.2198,0.2186,0.2162,0.2144,0.2112,0.2104,0.2087,0.207,0.2058,0.205,0.2052,0.2051,0.2051,0.2026,0.2031,0.203,0.2042,0.2041,0.2041,0.2028,0,0.2355,0.232,0.2299,0.2272,0.2252,0.2231,0.2214,0.2191,0.2172,0.2152,0.2131,0.2108,0.2101,0.209,0.2077,0.2054,0.2045,0.2055,0.2023,0.2022,0.203,0.2027,0.2033,0.2022,0.2026,0.2026,0.2026,0,0.2344,0.2321,0.2293,0.226,0.2251,0.2236,0.2207,0.2189,0.2161,0.2148,0.2128,0.2112,0.2088,0.2086,0.2052,0.2059,0.2045,0.2032,0.2031,0.2026,0.2023,0.2022,0.2018,0.2016,0.2022,0.2023,0.2023,0,0.2356,0.2318,0.2295,0.2283,0.2244,0.2233,0.2217,0.2189,0.2173,0.2148,0.2137,0.2109,0.2094,0.2072,0.2048,0.2048,0.2016,0.2012,0.2004,0.2004,0.1998,0.1998,0.1991,0.199,0.199,0.199,0.199,0,0.2352,0.2335,0.23,0.2286,0.2266,0.2241,0.2221,0.2202,0.2177,0.2158,0.2138,0.212,0.209,0.2068,0.2048,0.2023,0.2016,0.2004,0.1999,0.2005,0.2007,0.1995,0.1994,0.199,0.199,0.199,0.199,0,0.2362,0.2338,0.2312,0.2277,0.2268,0.2254,0.2223,0.2208,0.2188,0.2164,0.2157,0.2126,0.2098,0.2072,0.2036,0.2022,0.1996,0.199,0.2006,0.2003,0.1996,0.1996,0.198,0.1976,0.1979,0.1979,0.1979,0,0.2361,0.2347,0.2311,0.2297,0.228,0.2258,0.2241,0.2216,0.2199,0.2165,0.2154,0.2125,0.2101,0.2058,0.2031,0.2002,0.1995,0.1991,0.199,0.1996,0.1993,0.1994,0.1991,0.1991,0.1991,0.1991,0.1991,0,0.2361,0.2349,0.2326,0.2299,0.228,0.2257,0.2233,0.2223,0.2192,0.2174,0.2146,0.2127,0.209,0.2061,0.2029,0.201,0.1995,0.1992,0.1988,0.1994,0.2003,0.1997,0.2006,0.1992,0.1992,0.1992,0.1992,0.1992,0.2364,0.235,0.2322,0.2297,0.2276,0.2254,0.2237,0.2215,0.2192,0.216,0.2146,0.2117,0.2087,0.2043,0.2024,0.2,0.1997,0.1992,0.199,0.1989,0.199,0.2008,0.1994,0.1994,0.1994,0.1994,0.1994,0,0.2361,0.2342,0.2319,0.2287,0.2266,0.2255,0.2227,0.2211,0.2186,0.216,0.2137,0.2103,0.2075,0.2045,0.2015,0.2001,0.1993,0.1994,0.1994,0.1989,0.1995,0.2001,0.2,0.2,0.2,0.2,0.2,0.2,0.2358,0.2333,0.2318,0.2282,0.2262,0.2235,0.222,0.2199,0.2178,0.2142,0.2118,0.2099,0.2071,0.2038,0.2011,0.2003,0.1992,0.1994,0.1984,0.199,0.1989,0.1989,0.1994,0.1992,0.1992,0.1979,0.1979,0.1979]},{"header":{"parameterUnit":"m.s-1","parameterCategory":1,"la1":30.2991,"la2":30.254,"lo1":-89.0895,"lo2":-89.0444,"dy":0.0017,"dx":0.0017,"nx":28,"ny":28,"refTime":"2024-09-25T03:00:00:Z","depth":0,"parameterNumber":3,"parameterNumberName":"V-component_of_WINDS"},"data":[0,0,0,0,0,0,0,0,0,0,0,0,0,0,0,0,0,0,0,0,0,0,0,0,0,0,0,0,0,0,0,0,0,0,0,0,0,0,0,0,0,0,0,0,0,0,0,0,0,0,0,0,0,0,0,0,0,0,1.351,1.351,0,1.3465,1.3464,1.3464,1.3421,1.3421,1.342,1.342,1.3373,1.3372,1.3371,0,0,0,0,0,0,0,0,0,0,0,0,0,1.3559,1.3558,1.351,1.351,1.3509,1.3465,1.3464,1.3463,1.3421,1.3421,1.342,1.3419,1.3373,1.3372,1.3371,0,0,0,0,0,0,0,0,0,0,0,0,0,1.3528,1.3558,1.351,1.3483,1.348,1.3465,1.3464,1.3463,1.3421,1.3421,1.342,1.3419,1.3373,1.3372,1.3371,1.338,0,0,1.3368,1.3367,0,0,0,0,0,0,0,0,1.353,1.3526,1.3487,1.3485,1.3481,1.3448,1.3464,1.3435,1.3422,1.3443,1.342,1.3419,1.3398,1.3395,1.3388,1.3378,1.3376,1.3367,1.3367,1.3366,1.3366,0,0,0,0,0,0,0,1.3532,1.3528,1.3492,1.3487,1.3483,1.3472,1.3467,1.3458,1.3426,1.3442,1.3438,1.3434,1.3396,1.3389,1.3387,1.3375,1.3367,1.3366,1.3366,1.3365,1.3366,1.3366,0,0,0,0,0,0,1.3538,1.353,1.3494,1.3491,1.3504,1.3472,1.3466,1.3459,1.3426,1.342,1.3434,1.3432,1.3392,1.3388,1.3385,1.3391,1.3366,1.3365,1.3365,1.3365,1.3366,1.3367,0,0,0,0,0,0,1.354,1.3536,1.3495,1.3509,1.3503,1.3472,1.3465,1.3459,1.3452,1.342,1.3414,1.3433,1.3391,1.3387,1.3381,1.3389,1.3365,1.3364,1.3364,1.3365,1.3366,1.3404,0,0,0,0,0,0,1.3541,1.3536,1.354,1.351,1.3503,1.3493,1.3465,1.3458,1.345,1.3446,1.3418,1.3412,1.339,1.3383,1.3379,1.3387,1.3363,1.3363,1.3365,1.3366,1.3402,1.3406,1.341,0,0,0,0,0,1.3543,1.3553,1.354,1.3536,1.3507,1.3493,1.3489,1.3464,1.3451,1.3453,1.3433,1.3413,1.3388,1.3382,1.3379,1.3385,1.3363,1.3364,1.3366,1.34,1.3405,1.341,0,0,0,0,0,0,1.3585,1.3549,1.3534,1.3535,1.3517,1.3486,1.3489,1.347,1.3456,1.3453,1.3422,1.3416,1.3413,1.3399,1.3393,1.339,1.3373,1.3373,1.34,1.3405,1.3409,1.3412,1.3362,0,0,0,0,0,1.3595,1.3587,1.3555,1.3559,1.3551,1.3521,1.3515,1.3496,1.3477,1.3469,1.3448,1.343,1.3418,1.3411,1.3398,1.34,1.3392,1.3402,1.3406,1.341,1.3411,1.3408,1.3411,1.3372,1.3372,1.3372,0,0,1.3614,1.3593,1.359,1.3567,1.3551,1.3543,1.3516,1.3509,1.3502,1.3468,1.3461,1.3445,1.3422,1.3419,1.3417,1.3407,1.342,1.3412,1.3415,1.3414,1.341,1.3414,1.3417,1.3373,1.3372,1.3372,0,0,1.3644,1.3629,1.3629,1.3613,1.3589,1.357,1.357,1.3541,1.3528,1.352,1.3494,1.3485,1.3466,1.345,1.3439,1.3461,1.3442,1.3458,1.3479,1.3476,1.3479,1.3482,1.3488,1.3491,1.3459,1.3459,1.3459,0,1.3671,1.3659,1.3631,1.3625,1.3615,1.3583,1.3582,1.3568,1.3542,1.3535,1.3524,1.3497,1.348,1.3471,1.3476,1.347,1.3467,1.3461,1.3481,1.3484,1.3486,1.3491,1.3493,1.3461,1.3461,1.3461,1.3461,0,1.3692,1.3683,1.3686,1.366,1.365,1.3647,1.3618,1.3611,1.3593,1.3573,1.3564,1.3542,1.3523,1.352,1.3503,1.3508,1.3503,1.3487,1.3468,1.3492,1.3496,1.3498,1.3464,1.3463,1.3463,1.3462,0,0,1.3748,1.3706,1.3708,1.3694,1.3665,1.3658,1.3652,1.3633,1.3626,1.3609,1.3602,1.3585,1.357,1.3557,1.3538,1.3536,1.3552,1.352,1.3519,1.3525,1.3554,1.3565,1.3568,1.3539,1.3539,1.354,1.3556,0,1.3773,1.3761,1.3735,1.3731,1.3722,1.369,1.3685,1.3666,1.3647,1.3636,1.3615,1.3603,1.3584,1.3576,1.3573,1.3551,1.3557,1.355,1.3531,1.3531,1.3537,1.3571,1.3583,1.3599,1.3557,1.3558,1.3558,0,1.38,1.3784,1.3779,1.3748,1.3743,1.3738,1.3717,1.3708,1.3684,1.3671,1.3656,1.3634,1.3625,1.3608,1.3593,1.3588,1.3579,1.3567,1.3567,1.3563,1.3545,1.3567,1.3604,1.3606,1.3561,1.356,1.356,0,1.384,1.3816,1.3809,1.38,1.3764,1.3761,1.3746,1.3722,1.3711,1.3693,1.3685,1.3667,1.3656,1.3641,1.3614,1.3604,1.3601,1.3583,1.3588,1.3589,1.3589,1.3589,1.3624,1.3585,1.3585,1.3585,1.3585,0,1.3869,1.3867,1.3826,1.3822,1.3818,1.3787,1.3784,1.3766,1.3744,1.3735,1.3707,1.3698,1.3663,1.365,1.3629,1.3619,1.3615,1.3602,1.3596,1.3604,1.3606,1.3597,1.3595,1.3586,1.3586,1.3585,1.3585,0,1.3913,1.3886,1.3876,1.3842,1.3834,1.3832,1.3803,1.3796,1.3776,1.3764,1.3759,1.3726,1.3709,1.3681,1.3656,1.3641,1.3635,1.3626,1.3643,1.3639,1.3645,1.3645,1.3675,1.3676,1.3638,1.3639,1.3639,0,1.3933,1.393,1.3896,1.3888,1.3873,1.3861,1.3849,1.3819,1.3808,1.378,1.3776,1.3757,1.374,1.3714,1.3687,1.3667,1.3657,1.3669,1.3654,1.3661,1.3655,1.3655,1.3653,1.3672,1.3673,1.3673,1.3674,0,1.3971,1.3957,1.3942,1.3922,1.3909,1.3892,1.3873,1.3867,1.3832,1.3821,1.3803,1.379,1.3764,1.3744,1.372,1.3703,1.3682,1.3678,1.3678,1.3686,1.3695,1.3688,1.3651,1.3678,1.3677,1.3677,1.3677,1.3677,1.4002,1.3997,1.3972,1.3955,1.3938,1.392,1.3912,1.389,1.3874,1.385,1.3833,1.3816,1.379,1.3755,1.3739,1.3724,1.3715,1.3716,1.3715,1.3716,1.3718,1.3698,1.372,1.372,1.372,1.372,1.372,0,1.4037,1.4018,1.4004,1.3978,1.3964,1.3946,1.3923,1.3913,1.3898,1.3876,1.3859,1.3838,1.3818,1.3789,1.3767,1.376,1.375,1.3755,1.3755,1.3751,1.3728,1.373,1.3764,1.3764,1.3764,1.3764,1.3764,1.3764,1.4053,1.4043,1.4026,1.4007,1.3988,1.3971,1.396,1.3943,1.3925,1.3902,1.3885,1.3866,1.3841,1.3816,1.3797,1.3788,1.3781,1.3789,1.3778,1.3757,1.3753,1.3749,1.375,1.3788,1.3788,1.3801,1.3801,1.3801]}]]